Hourly Weather Belgorod-Dnistrovsky

Today, 26 September, Saturday

Time Temperature Precipitation Wind Pressure Humidity
00:00 +19°C° 0 mm 3 mps 750 mmHg 89%
01:00 +19°C° 0 mm 3 mps 750 mmHg 90%
02:00 +19°C° 0 mm 3 mps 750 mmHg 91%
03:00 +19°C° 0 mm 4 mps 750 mmHg 91%
04:00 +19°C° 0 mm 4 mps 749 mmHg 91%
05:00 +19°C° 0 mm 4 mps 749 mmHg 91%
06:00 +20°C° 0 mm 5 mps 749 mmHg 86%
07:00 +21°C° 0 mm 6 mps 749 mmHg 81%
08:00 +22°C° 0 mm 6 mps 749 mmHg 76%
09:00 +23°C° 0 mm 7 mps 748 mmHg 71%
10:00 +24°C° 0 mm 8 mps 748 mmHg 66%
11:00 +27°C° 0 mm 9 mps 748 mmHg 61%
12:00 +27°C° 0.1 mm 9 mps 748 mmHg 61%
13:00 +27°C° 0.1 mm 9 mps 747 mmHg 60%
14:00 +27°C° 0.1 mm 10 mps 747 mmHg 60%
15:00 +26°C° 0.2 mm 10 mps 747 mmHg 63%
16:00 +24°C° 0.2 mm 10 mps 746 mmHg 67%
17:00 +24°C° 0.2 mm 10 mps 746 mmHg 71%
18:00 +23°C° 0 mm 9 mps 746 mmHg 72%
19:00 +23°C° 0 mm 9 mps 746 mmHg 73%
20:00 +23°C° 0 mm 9 mps 746 mmHg 75%
21:00 +23°C° 0 mm 10 mps 745 mmHg 74%
22:00 +23°C° 0 mm 10 mps 745 mmHg 72%
23:00 +24°C° 0 mm 11 mps 745 mmHg 71%

Tomorrow, 27 September, Sunday

Time Temperature Precipitation Wind Pressure Humidity
00:00 +24°C° 0.4 mm 11 mps 745 mmHg 71%
01:00 +24°C° 0.4 mm 11 mps 745 mmHg 71%
02:00 +24°C° 0.4 mm 11 mps 745 mmHg 70%
03:00 +23°C° 1.2 mm 10 mps 745 mmHg 74%
04:00 +22°C° 1.2 mm 9 mps 745 mmHg 78%
05:00 +21°C° 1.2 mm 8 mps 746 mmHg 82%
06:00 +20°C° 0.2 mm 8 mps 746 mmHg 75%
07:00 +20°C° 0.2 mm 8 mps 747 mmHg 68%
08:00 +20°C° 0.2 mm 8 mps 748 mmHg 61%
09:00 +21°C° 0 mm 9 mps 749 mmHg 53%
10:00 +22°C° 0 mm 9 mps 749 mmHg 45%
11:00 +24°C° 0 mm 9 mps 750 mmHg 37%
12:00 +24°C° 0 mm 8 mps 751 mmHg 36%
13:00 +24°C° 0 mm 8 mps 751 mmHg 35%
14:00 +26°C° 0 mm 7 mps 752 mmHg 33%
15:00 +24°C° 0 mm 6 mps 752 mmHg 33%
16:00 +24°C° 0 mm 6 mps 753 mmHg 33%
17:00 +25°C° 0 mm 5 mps 754 mmHg 33%
18:00 +22°C° 0 mm 5 mps 754 mmHg 35%
19:00 +21°C° 0 mm 4 mps 755 mmHg 37%
20:00 +20°C° 0 mm 4 mps 755 mmHg 39%
21:00 +19°C° 0 mm 4 mps 756 mmHg 42%
22:00 +18°C° 0 mm 3 mps 756 mmHg 44%
23:00 +18°C° 0 mm 3 mps 757 mmHg 46%

Day after tomorrow, 28 September, Monday

Time Temperature Precipitation Wind Pressure Humidity
00:00 +17°C° 0 mm 3 mps 757 mmHg 48%
01:00 +17°C° 0 mm 3 mps 757 mmHg 49%
02:00 +16°C° 0 mm 3 mps 757 mmHg 51%
03:00 +16°C° 0 mm 2 mps 757 mmHg 52%
04:00 +16°C° 0 mm 1 mps 758 mmHg 53%
05:00 +15°C° 0 mm 1 mps 758 mmHg 54%
06:00 +18°C° 0 mm 1 mps 758 mmHg 50%
07:00 +19°C° 0 mm 1 mps 758 mmHg 46%
08:00 +21°C° 0 mm 1 mps 758 mmHg 42%
09:00 +22°C° 0 mm 1 mps 758 mmHg 39%
10:00 +24°C° 0 mm 2 mps 758 mmHg 37%
11:00 +26°C° 0 mm 3 mps 758 mmHg 34%
12:00 +26°C° 0 mm 4 mps 758 mmHg 35%
13:00 +26°C° 0 mm 4 mps 758 mmHg 36%
14:00 +26°C° 0 mm 5 mps 757 mmHg 37%
15:00 +25°C° 0 mm 5 mps 757 mmHg 42%
16:00 +23°C° 0 mm 5 mps 757 mmHg 46%
17:00 +22°C° 0 mm 5 mps 757 mmHg 51%
18:00 +21°C° 0 mm 4 mps 757 mmHg 58%
19:00 +20°C° 0 mm 4 mps 757 mmHg 64%
20:00 +19°C° 0 mm 4 mps 757 mmHg 71%
21:00 +19°C° 0 mm 4 mps 756 mmHg 75%
22:00 +19°C° 0 mm 4 mps 756 mmHg 79%
23:00 +19°C° 0 mm 4 mps 756 mmHg 83%

29 September, Tuesday

Time Temperature Precipitation Wind Pressure Humidity
00:00 +19°C° 0 mm 4 mps 755 mmHg 85%
01:00 +19°C° 0 mm 4 mps 755 mmHg 87%
02:00 +19°C° 0 mm 4 mps 755 mmHg 89%
03:00 +19°C° 0.1 mm 4 mps 754 mmHg 89%
04:00 +19°C° 0.1 mm 4 mps 754 mmHg 90%
05:00 +20°C° 0.1 mm 5 mps 753 mmHg 90%
06:00 +21°C° 0.2 mm 5 mps 753 mmHg 85%
07:00 +22°C° 0.2 mm 6 mps 753 mmHg 80%
08:00 +23°C° 0.2 mm 6 mps 752 mmHg 75%
09:00 +24°C° 0.2 mm 7 mps 752 mmHg 70%
10:00 +26°C° 0.2 mm 7 mps 751 mmHg 64%
11:00 +27°C° 0.2 mm 8 mps 751 mmHg 59%
12:00 +27°C° 0.2 mm 8 mps 750 mmHg 58%
13:00 +27°C° 0.2 mm 7 mps 750 mmHg 57%
14:00 +27°C° 0.2 mm 7 mps 750 mmHg 56%
15:00 +26°C° 1.1 mm 7 mps 749 mmHg 62%
16:00 +23°C° 1.1 mm 6 mps 749 mmHg 68%
17:00 +22°C° 1.1 mm 6 mps 749 mmHg 75%
18:00 +20°C° 1 mm 6 mps 749 mmHg 78%
19:00 +19°C° 1 mm 6 mps 749 mmHg 81%
20:00 +16°C° 1 mm 6 mps 749 mmHg 84%
21:00 +16°C° 0 mm 6 mps 749 mmHg 84%
22:00 +16°C° 0 mm 6 mps 749 mmHg 84%
23:00 +15°C° 0 mm 6 mps 749 mmHg 84%

30 September, Wednesday

Time Temperature Precipitation Wind Pressure Humidity
00:00 +15°C° 0 mm 5 mps 749 mmHg 85%
01:00 +15°C° 0 mm 5 mps 749 mmHg 86%
02:00 +15°C° 0 mm 5 mps 749 mmHg 87%
03:00 +15°C° 0 mm 5 mps 749 mmHg 87%
04:00 +15°C° 0 mm 5 mps 749 mmHg 87%
05:00 +15°C° 0 mm 5 mps 749 mmHg 87%
06:00 +15°C° 0 mm 5 mps 749 mmHg 84%
07:00 +15°C° 0 mm 5 mps 749 mmHg 81%
08:00 +16°C° 0 mm 5 mps 749 mmHg 78%
09:00 +17°C° 0 mm 5 mps 749 mmHg 72%
10:00 +19°C° 0 mm 4 mps 749 mmHg 65%
11:00 +20°C° 0 mm 4 mps 749 mmHg 59%
12:00 +21°C° 0.3 mm 3 mps 749 mmHg 56%
13:00 +21°C° 0.3 mm 3 mps 749 mmHg 53%
14:00 +22°C° 0.3 mm 3 mps 749 mmHg 50%
15:00 +21°C° 0.8 mm 3 mps 748 mmHg 52%
16:00 +20°C° 0.8 mm 3 mps 748 mmHg 55%
17:00 +20°C° 0.8 mm 3 mps 748 mmHg 58%
18:00 +19°C° 0.3 mm 3 mps 748 mmHg 62%
19:00 +18°C° 0.3 mm 3 mps 749 mmHg 65%
20:00 +17°C° 0.3 mm 3 mps 749 mmHg 69%
21:00 +16°C° 0 mm 3 mps 749 mmHg 70%
22:00 +16°C° 0 mm 3 mps 749 mmHg 72%
23:00 +14°C° 0 mm 3 mps 749 mmHg 73%

1 October, Thursday

Time Temperature Precipitation Wind Pressure Humidity
00:00 +16°C° 0 mm 3 mps 749 mmHg 75%
01:00 +15°C° 0 mm 4 mps 749 mmHg 77%
02:00 +15°C° 0 mm 4 mps 749 mmHg 79%
03:00 +15°C° 0 mm 4 mps 749 mmHg 79%
04:00 +15°C° 0 mm 4 mps 749 mmHg 79%
05:00 +14°C° 0 mm 3 mps 749 mmHg 79%
06:00 +15°C° 0 mm 4 mps 749 mmHg 73%
07:00 +17°C° 0 mm 4 mps 749 mmHg 68%
08:00 +18°C° 0 mm 4 mps 750 mmHg 63%
09:00 +19°C° 0 mm 4 mps 750 mmHg 59%
10:00 +19°C° 0 mm 4 mps 750 mmHg 55%
11:00 +20°C° 0 mm 4 mps 750 mmHg 51%
12:00 +21°C° 0 mm 5 mps 750 mmHg 49%
13:00 +22°C° 0 mm 5 mps 750 mmHg 46%
14:00 +23°C° 0 mm 5 mps 750 mmHg 43%
15:00 +22°C° 0 mm 5 mps 750 mmHg 48%
16:00 +21°C° 0 mm 5 mps 750 mmHg 53%
17:00 +20°C° 0 mm 6 mps 750 mmHg 58%
18:00 +20°C° 0 mm 5 mps 751 mmHg 63%
19:00 +19°C° 0 mm 5 mps 751 mmHg 68%
20:00 +17°C° 0 mm 5 mps 751 mmHg 74%
21:00 +18°C° 0.1 mm 4 mps 751 mmHg 76%
22:00 +18°C° 0.1 mm 4 mps 752 mmHg 77%
23:00 +17°C° 0.1 mm 4 mps 752 mmHg 79%
Show more